Weather History for Pittsburg, KS

Change the Weather History Date:

Monday, February 17, 2014

  Actual Average (KJLN) Record (KJLN)
Temperature  
Mean Temperature 48 °F 40 °F  
Max Temperature 60 °F 51 °F 74 °F (2011)
Min Temperature 36 °F 30 °F 4 °F (1993)
Degree Days  
Heating Degree Days 17 25  
Month to date heating degree days 455  
Since 1 July heating degree days 3004  
Cooling Degree Days 0 0  
Month to date cooling degree days 0  
Year to date cooling degree days 0  
Moisture  
Dew Point 32 °F    
Average Humidity 50    
Maximum Humidity 72    
Minimum Humidity 28    
Precipitation  
Precipitation 0.00 in 0.09 in 0.63 in (1961)
Month to date precipitation 1.31  
Year to date precipitation 3.34  
Sea Level Pressure  
Sea Level Pressure 29.95 in    
Wind  
Wind Speed 10 mph (WSW)    
Max Wind Speed 22 mph    
Max Gust Speed 33 mph    
Visibility 10 miles    
Events      
T = Trace of Precipitation, MM = Missing Value Source: NWS Daily Summary

Daily Weather History Graph

Daily Weather History Graph

Search for Another Location

Airport:

Trip Planner

Search our weather history database for the weather conditions in past years. The results will help you decide how hot, cold, wet, or windy it might be!

Date:

Astronomy

Feb. 17, 2014 Rise Set
Actual Time 7:05 AM CST 6:00 PM CST
Civil Twilight 6:39 AM CST 6:27 PM CST
Nautical Twilight 6:08 AM CST 6:57 PM CST
Astronomical Twilight 5:38 AM CST 7:28 PM CST
Moon 8:51 PM CST (2/17) 8:10 AM CST (2/17)
Length of Visible Light 11h 48m
Length of Day
10h 54m
Waning Gibbous, 93% of the Moon is Illuminated
Feb 17
Waning Gibbous
Feb 22
Last Quarter
Mar 1
New
Mar 8
First Quarter
Mar 16
Full

Hourly Weather History & Observations

Time (CST) Temp. Windchill Dew Point Humidity Pressure Visibility Wind Dir Wind Speed Gust Speed Precip Events Conditions
12:15 AM 50.9 °F - 32.0 °F 48% 29.85 in 10.0 mi SSE 9.2 mph - N/A   Scattered Clouds
12:35 AM 50.9 °F - 32.0 °F 48% 29.84 in 10.0 mi SSE 12.7 mph 18.4 mph N/A   Mostly Cloudy
12:55 AM 50.9 °F - 32.0 °F 48% 29.83 in 10.0 mi SE 11.5 mph 16.1 mph N/A   Mostly Cloudy
1:15 AM 50.9 °F - 32.4 °F 49% 29.82 in 10.0 mi SE 13.8 mph 18.4 mph N/A   Scattered Clouds
1:35 AM 50.9 °F - 32.7 °F 50% 29.80 in 10.0 mi SSE 13.8 mph - N/A   Mostly Cloudy
1:55 AM 50.9 °F - 33.1 °F 51% 29.79 in 10.0 mi SSE 12.7 mph 17.3 mph N/A   Mostly Cloudy
2:15 AM 50.9 °F - 33.3 °F 51% 29.79 in 10.0 mi SSE 13.8 mph - N/A   Mostly Cloudy
2:35 AM 50.9 °F - 33.4 °F 51% 29.77 in 10.0 mi SSE 12.7 mph 19.6 mph N/A   Overcast
2:55 AM 50.9 °F - 33.8 °F 52% 29.77 in 10.0 mi SSE 11.5 mph - N/A   Overcast
3:15 AM 50.9 °F - 34.5 °F 54% 29.75 in 10.0 mi SSE 11.5 mph - N/A   Overcast
3:35 AM 50.9 °F - 35.1 °F 55% 29.75 in 10.0 mi SSE 11.5 mph - N/A   Overcast
3:55 AM 50.9 °F - 35.8 °F 56% 29.74 in 10.0 mi SSE 8.1 mph - N/A   Overcast
4:15 AM 50.9 °F - 36.5 °F 58% 29.76 in 10.0 mi SE 6.9 mph - N/A   Overcast
4:35 AM 50.9 °F - 37.4 °F 60% 29.75 in 10.0 mi SSE 8.1 mph - N/A   Overcast
4:55 AM 50.9 °F - 38.1 °F 62% 29.77 in 10.0 mi South 6.9 mph - N/A   Mostly Cloudy
5:15 AM 50.9 °F - 39.6 °F 65% 29.77 in 10.0 mi SSE 3.5 mph - N/A   Scattered Clouds
5:35 AM 50.9 °F - 40.5 °F 67% 29.77 in 10.0 mi Calm Calm - N/A   Mostly Cloudy
5:55 AM 50.7 °F - 40.6 °F 68% 29.78 in 10.0 mi Calm Calm - N/A   Overcast
6:15 AM 51.4 °F - 41.7 °F 69% 29.79 in 10.0 mi SW 5.8 mph - N/A   Overcast
6:35 AM 52.7 °F - 43.2 °F 70% 29.79 in 10.0 mi SW 9.2 mph - N/A   Overcast
6:55 AM 53.2 °F - 43.5 °F 70% 29.80 in 10.0 mi SW 9.2 mph - N/A   Overcast
7:15 AM 52.2 °F - 42.4 °F 69% 29.81 in 10.0 mi WSW 9.2 mph - N/A   Scattered Clouds
7:35 AM 50.9 °F - 41.9 °F 71% 29.83 in 10.0 mi WSW 9.2 mph - N/A   Scattered Clouds
7:55 AM 50.9 °F - 42.1 °F 72% 29.84 in 10.0 mi West 9.2 mph - N/A   Scattered Clouds
8:15 AM 51.8 °F - 41.7 °F 68% 29.86 in 10.0 mi WNW 12.7 mph 20.7 mph N/A   Clear
8:35 AM 51.1 °F - 37.6 °F 60% 29.89 in 10.0 mi NW 18.4 mph 33.4 mph N/A   Clear
8:55 AM 50.9 °F - 36.9 °F 59% 29.90 in 10.0 mi NNW 19.6 mph 26.5 mph N/A   Clear
9:15 AM 50.9 °F - 36.9 °F 59% 29.92 in 10.0 mi NNW 21.9 mph 32.2 mph N/A   Clear
9:35 AM 50.9 °F - 37.2 °F 59% 29.94 in 10.0 mi NW 20.7 mph 28.8 mph N/A   Clear
9:55 AM 50.4 °F - 37.0 °F 60% 29.97 in 10.0 mi NNW 21.9 mph 31.1 mph N/A   Clear
10:15 AM 50.4 °F - 36.9 °F 60% 29.99 in 10.0 mi NNW 21.9 mph 28.8 mph N/A   Clear
10:35 AM 50.9 °F - 36.3 °F 57% 30.01 in 10.0 mi North 17.3 mph 29.9 mph N/A   Clear
10:55 AM 50.9 °F - 34.0 °F 52% 30.03 in 10.0 mi North 18.4 mph 25.3 mph N/A   Clear
11:15 AM 51.3 °F - 32.4 °F 48% 30.03 in 10.0 mi North 16.1 mph 27.6 mph N/A   Clear
11:35 AM 52.9 °F - 32.2 °F 45% 30.04 in 10.0 mi North 15.0 mph 26.5 mph N/A   Clear
11:55 AM 54.9 °F - 32.2 °F 42% 30.04 in 10.0 mi NNW 17.3 mph 24.2 mph N/A   Clear
12:15 PM 55.8 °F - 32.0 °F 41% 30.04 in 10.0 mi NNW 19.6 mph 26.5 mph N/A   Clear
12:35 PM 55.8 °F - 31.1 °F 39% 30.04 in 10.0 mi NNW 15.0 mph 25.3 mph N/A   Clear
12:55 PM 55.8 °F - 31.1 °F 39% 30.04 in 10.0 mi NNW 11.5 mph 23.0 mph N/A   Clear
1:15 PM 56.5 °F - 31.1 °F 38% 30.03 in 10.0 mi North 13.8 mph 19.6 mph N/A   Clear
1:35 PM 58.1 °F - 31.3 °F 36% 30.02 in 10.0 mi North 12.7 mph 18.4 mph N/A   Clear
1:55 PM 58.3 °F - 30.2 °F 34% 30.02 in 10.0 mi NW 13.8 mph 20.7 mph N/A   Clear
2:15 PM 58.3 °F - 29.7 °F 34% 30.03 in 10.0 mi NNW 12.7 mph 17.3 mph N/A   Clear
2:35 PM 58.3 °F - 28.8 °F 33% 30.04 in 10.0 mi NNW 12.7 mph 23.0 mph N/A   Clear
2:55 PM 58.3 °F - 28.6 °F 32% 30.03 in 10.0 mi NW 9.2 mph 20.7 mph N/A   Clear
3:15 PM 58.6 °F - 28.2 °F 31% 30.03 in 10.0 mi NNW 8.1 mph - N/A   Clear
3:35 PM 58.5 °F - 28.0 °F 31% 30.04 in 10.0 mi NW 8.1 mph 17.3 mph N/A   Clear
3:55 PM 60.1 °F - 29.1 °F 31% 30.04 in 10.0 mi NW 6.9 mph - N/A   Clear
4:15 PM 60.3 °F - 28.0 °F 29% 30.05 in 10.0 mi WNW 5.8 mph - N/A   Clear
4:35 PM 59.2 °F - 26.8 °F 29% 30.06 in 10.0 mi NW 9.2 mph 18.4 mph N/A   Clear
4:55 PM 58.3 °F - 25.5 °F 28% 30.07 in 10.0 mi NW 10.4 mph - N/A   Clear
5:15 PM 58.3 °F - 25.7 °F 29% 30.07 in 10.0 mi WNW 4.6 mph - N/A   Clear
5:35 PM 57.6 °F - 25.7 °F 29% 30.07 in 10.0 mi NW 4.6 mph - N/A   Clear
5:55 PM 55.8 °F - 25.3 °F 31% 30.08 in 10.0 mi Calm Calm - N/A   Clear
6:15 PM 54.0 °F - 24.8 °F 32% 30.07 in 10.0 mi Calm Calm - N/A   Clear
6:35 PM 51.4 °F - 24.4 °F 35% 30.07 in 10.0 mi SW 3.5 mph - N/A   Clear
6:55 PM 44.6 °F 43.1 °F 23.9 °F 44% 30.08 in 10.0 mi SSW 3.5 mph - N/A   Clear
7:15 PM 43.7 °F - 25.2 °F 48% 30.08 in 10.0 mi Calm Calm - N/A   Clear
7:35 PM 42.6 °F 40.9 °F 24.3 °F 48% 30.08 in 10.0 mi SSW 3.5 mph - N/A   Clear
7:55 PM 41.4 °F 37.6 °F 24.6 °F 51% 30.08 in 10.0 mi SSW 5.8 mph - N/A   Clear
8:15 PM 40.6 °F 38.6 °F 25.0 °F 54% 30.08 in 10.0 mi SSW 3.5 mph - N/A   Clear
8:35 PM 41.0 °F 39.0 °F 24.3 °F 51% 30.08 in 10.0 mi SSW 3.5 mph - N/A   Clear
8:55 PM 39.9 °F - 24.6 °F 54% 30.09 in 10.0 mi Calm Calm - N/A   Clear
9:15 PM 39.7 °F 36.5 °F 24.8 °F 55% 30.08 in 10.0 mi SSW 4.6 mph - N/A   Clear
9:35 PM 37.4 °F 32.8 °F 25.2 °F 61% 30.09 in 10.0 mi SSW 5.8 mph - N/A   Clear
9:55 PM 37.0 °F 32.4 °F 25.5 °F 63% 30.09 in 10.0 mi SSW 5.8 mph - N/A   Clear
10:15 PM 36.1 °F 31.4 °F 24.8 °F 63% 30.08 in 10.0 mi SSW 5.8 mph - N/A   Clear
10:35 PM 38.7 °F 33.6 °F 24.3 °F 56% 30.07 in 10.0 mi SSW 6.9 mph - N/A   Clear
10:55 PM 41.0 °F 37.1 °F 23.2 °F 49% 30.07 in 10.0 mi SSW 5.8 mph - N/A   Clear
11:15 PM 40.5 °F 35.8 °F 23.7 °F 51% 30.06 in 10.0 mi SSW 6.9 mph - N/A   Clear
11:35 PM 40.5 °F 35.8 °F 24.1 °F 52% 30.06 in 10.0 mi SSW 6.9 mph - N/A   Clear
11:55 PM 40.1 °F 35.3 °F 24.8 °F 54% 30.06 in 10.0 mi SSW 6.9 mph - N/A   Clear